• In Belarus
  • List of Countries
  • For 7 days
  • Water Temperature
  • Satellite Maps
  • Weather Map
  • Weather Widgets
  • user-avatar
    Login

    Hourly Weather Dobrich

    Today, 19 July, Friday

    Time Temperature Precipitation Wind Pressure Humidity
    00:00 +19°C° 0 mm 1 mps 738 mmHg 79%
    01:00 +19°C° 0 mm 1 mps 738 mmHg 79%
    02:00 +19°C° 0 mm 1 mps 738 mmHg 79%
    03:00 +18°C° 0 mm 1 mps 739 mmHg 78%
    04:00 +18°C° 0 mm 1 mps 739 mmHg 77%
    05:00 +18°C° 0 mm 1 mps 739 mmHg 77%
    06:00 +21°C° 0 mm 1 mps 739 mmHg 69%
    07:00 +23°C° 0 mm 1 mps 740 mmHg 60%
    08:00 +25°C° 0 mm 2 mps 740 mmHg 51%
    09:00 +27°C° 0 mm 2 mps 740 mmHg 47%
    10:00 +28°C° 0 mm 3 mps 740 mmHg 42%
    11:00 +29°C° 0 mm 4 mps 741 mmHg 37%
    12:00 +29°C° 0 mm 4 mps 741 mmHg 36%
    13:00 +29°C° 0 mm 4 mps 740 mmHg 35%
    14:00 +30°C° 0 mm 4 mps 740 mmHg 34%
    15:00 +29°C° 0 mm 4 mps 740 mmHg 36%
    16:00 +29°C° 0 mm 4 mps 740 mmHg 37%
    17:00 +28°C° 0 mm 4 mps 740 mmHg 39%
    18:00 +26°C° 0 mm 4 mps 740 mmHg 47%
    19:00 +22°C° 0 mm 4 mps 740 mmHg 56%
    20:00 +20°C° 0 mm 3 mps 740 mmHg 64%
    21:00 +20°C° 0 mm 3 mps 740 mmHg 66%
    22:00 +19°C° 0 mm 3 mps 740 mmHg 68%
    23:00 +19°C° 0 mm 3 mps 741 mmHg 70%

    Tomorrow, 20 July, Saturday

    Time Temperature Precipitation Wind Pressure Humidity
    00:00 +18°C° 0 mm 2 mps 741 mmHg 70%
    01:00 +18°C° 0 mm 2 mps 741 mmHg 70%
    02:00 +18°C° 0 mm 2 mps 741 mmHg 70%
    03:00 +18°C° 0 mm 2 mps 741 mmHg 68%
    04:00 +19°C° 0 mm 1 mps 741 mmHg 66%
    05:00 +19°C° 0 mm 1 mps 741 mmHg 64%
    06:00 +21°C° 0 mm 1 mps 741 mmHg 57%
    07:00 +23°C° 0 mm 1 mps 742 mmHg 51%
    08:00 +26°C° 0 mm 1 mps 742 mmHg 45%
    09:00 +27°C° 0 mm 2 mps 742 mmHg 42%
    10:00 +28°C° 0 mm 3 mps 742 mmHg 40%
    11:00 +30°C° 0 mm 3 mps 743 mmHg 37%
    12:00 +30°C° 0 mm 3 mps 742 mmHg 37%
    13:00 +30°C° 0 mm 4 mps 742 mmHg 37%
    14:00 +30°C° 0 mm 4 mps 742 mmHg 37%
    15:00 +30°C° 0 mm 4 mps 742 mmHg 38%
    16:00 +29°C° 0 mm 4 mps 742 mmHg 40%
    17:00 +29°C° 0 mm 4 mps 742 mmHg 42%
    18:00 +27°C° 0 mm 3 mps 742 mmHg 50%
    19:00 +24°C° 0 mm 3 mps 742 mmHg 58%
    20:00 +21°C° 0 mm 2 mps 742 mmHg 66%
    21:00 +20°C° 0 mm 2 mps 742 mmHg 67%
    22:00 +20°C° 0 mm 2 mps 742 mmHg 67%
    23:00 +19°C° 0 mm 2 mps 742 mmHg 68%

    Day after tomorrow, 21 July, Sunday

    Time Temperature Precipitation Wind Pressure Humidity
    00:00 +19°C° 0 mm 2 mps 742 mmHg 67%
    01:00 +20°C° 0 mm 1 mps 742 mmHg 66%
    02:00 +20°C° 0 mm 1 mps 741 mmHg 65%
    03:00 +20°C° 0 mm 1 mps 741 mmHg 63%
    04:00 +19°C° 0 mm 1 mps 742 mmHg 62%
    05:00 +19°C° 0 mm 1 mps 742 mmHg 61%
    06:00 +22°C° 0 mm 1 mps 742 mmHg 54%
    07:00 +24°C° 0 mm 1 mps 742 mmHg 47%
    08:00 +27°C° 0 mm 1 mps 742 mmHg 39%
    09:00 +28°C° 0 mm 1 mps 743 mmHg 37%
    10:00 +30°C° 0 mm 1 mps 743 mmHg 34%
    11:00 +32°C° 0 mm 1 mps 743 mmHg 31%
    12:00 +32°C° 0 mm 2 mps 743 mmHg 30%
    13:00 +32°C° 0 mm 2 mps 743 mmHg 29%
    14:00 +34°C° 0 mm 2 mps 742 mmHg 29%
    15:00 +33°C° 0 mm 3 mps 742 mmHg 32%
    16:00 +32°C° 0 mm 4 mps 742 mmHg 34%
    17:00 +30°C° 0 mm 4 mps 742 mmHg 37%
    18:00 +27°C° 0 mm 4 mps 742 mmHg 44%
    19:00 +25°C° 0 mm 3 mps 741 mmHg 51%
    20:00 +22°C° 0 mm 3 mps 741 mmHg 58%
    21:00 +22°C° 0 mm 3 mps 741 mmHg 57%
    22:00 +21°C° 0 mm 3 mps 742 mmHg 57%
    23:00 +21°C° 0 mm 3 mps 742 mmHg 56%

    22 July, Monday

    Time Temperature Precipitation Wind Pressure Humidity
    00:00 +21°C° 0 mm 2 mps 742 mmHg 54%
    01:00 +21°C° 0 mm 2 mps 741 mmHg 52%
    02:00 +21°C° 0 mm 2 mps 741 mmHg 50%
    03:00 +21°C° 0 mm 2 mps 741 mmHg 49%
    04:00 +21°C° 0 mm 2 mps 741 mmHg 48%
    05:00 +21°C° 0 mm 2 mps 741 mmHg 48%
    06:00 +24°C° 0 mm 2 mps 741 mmHg 44%
    07:00 +26°C° 0 mm 2 mps 741 mmHg 41%
    08:00 +29°C° 0 mm 2 mps 742 mmHg 37%
    09:00 +31°C° 0 mm 2 mps 742 mmHg 35%
    10:00 +32°C° 0 mm 1 mps 742 mmHg 33%
    11:00 +34°C° 0 mm 1 mps 742 mmHg 31%
    12:00 +35°C° 0 mm 2 mps 741 mmHg 30%
    13:00 +35°C° 0 mm 2 mps 741 mmHg 30%
    14:00 +35°C° 0 mm 3 mps 741 mmHg 29%
    15:00 +34°C° 0 mm 3 mps 740 mmHg 31%
    16:00 +34°C° 0 mm 3 mps 740 mmHg 32%
    17:00 +33°C° 0 mm 4 mps 740 mmHg 34%
    18:00 +30°C° 0 mm 4 mps 739 mmHg 38%
    19:00 +28°C° 0 mm 4 mps 739 mmHg 43%
    20:00 +25°C° 0 mm 4 mps 739 mmHg 48%
    21:00 +25°C° 0 mm 3 mps 739 mmHg 49%
    22:00 +24°C° 0 mm 2 mps 739 mmHg 51%
    23:00 +24°C° 0 mm 2 mps 739 mmHg 53%

    23 July, Tuesday

    Time Temperature Precipitation Wind Pressure Humidity
    00:00 +23°C° 0 mm 2 mps 739 mmHg 58%
    01:00 +21°C° 0 mm 3 mps 739 mmHg 63%
    02:00 +21°C° 0 mm 3 mps 739 mmHg 69%
    03:00 +20°C° 0.1 mm 3 mps 739 mmHg 74%
    04:00 +20°C° 0.1 mm 3 mps 739 mmHg 79%
    05:00 +20°C° 0.1 mm 4 mps 738 mmHg 85%
    06:00 +21°C° 0.1 mm 4 mps 739 mmHg 81%
    07:00 +22°C° 0.1 mm 5 mps 739 mmHg 77%
    08:00 +23°C° 0.1 mm 6 mps 739 mmHg 73%
    09:00 +24°C° 0 mm 6 mps 739 mmHg 68%
    10:00 +26°C° 0 mm 6 mps 739 mmHg 64%
    11:00 +26°C° 0 mm 6 mps 739 mmHg 60%
    12:00 +26°C° 0 mm 6 mps 739 mmHg 57%
    13:00 +26°C° 0 mm 6 mps 739 mmHg 54%
    14:00 +26°C° 0 mm 6 mps 739 mmHg 51%
    15:00 +24°C° 0.1 mm 6 mps 739 mmHg 53%
    16:00 +23°C° 0.1 mm 5 mps 739 mmHg 54%
    17:00 +22°C° 0.1 mm 5 mps 739 mmHg 55%
    18:00 +21°C° 0 mm 4 mps 739 mmHg 63%
    19:00 +19°C° 0 mm 3 mps 739 mmHg 71%
    20:00 +18°C° 0 mm 2 mps 739 mmHg 79%
    21:00 +17°C° 0 mm 2 mps 739 mmHg 82%
    22:00 +16°C° 0 mm 3 mps 739 mmHg 86%
    23:00 +16°C° 0 mm 3 mps 739 mmHg 89%

    24 July, Wednesday

    Time Temperature Precipitation Wind Pressure Humidity
    00:00 +14°C° 0 mm 4 mps 739 mmHg 89%
    01:00 +14°C° 0 mm 4 mps 739 mmHg 89%
    02:00 +14°C° 0 mm 5 mps 739 mmHg 89%
    03:00 +14°C° 0 mm 4 mps 738 mmHg 90%
    04:00 +14°C° 0 mm 4 mps 738 mmHg 91%
    05:00 +14°C° 0 mm 4 mps 738 mmHg 92%
    06:00 +17°C° 0 mm 4 mps 739 mmHg 82%
    07:00 +19°C° 0 mm 5 mps 739 mmHg 71%
    08:00 +21°C° 0 mm 5 mps 739 mmHg 61%
    09:00 +23°C° 0 mm 5 mps 739 mmHg 55%
    10:00 +25°C° 0 mm 5 mps 739 mmHg 50%
    11:00 +26°C° 0 mm 5 mps 739 mmHg 44%
    12:00 +27°C° 0 mm 5 mps 739 mmHg 42%
    13:00 +28°C° 0 mm 5 mps 739 mmHg 39%
    14:00 +29°C° 0 mm 5 mps 739 mmHg 36%
    15:00 +29°C° 0 mm 5 mps 738 mmHg 37%
    16:00 +28°C° 0 mm 5 mps 738 mmHg 37%
    17:00 +28°C° 0 mm 4 mps 738 mmHg 38%
    18:00 +27°C° 0 mm 4 mps 738 mmHg 42%
    19:00 +25°C° 0 mm 3 mps 738 mmHg 47%
    20:00 +23°C° 0 mm 2 mps 738 mmHg 52%
    21:00 +23°C° 0 mm 2 mps 738 mmHg 55%
    22:00 +21°C° 0 mm 3 mps 739 mmHg 58%
    23:00 +20°C° 0 mm 3 mps 739 mmHg 61%
    Show more